This is the latest recevied weather packets stored in our database for station/object IW3HBX-13. If no packets are shown the sender has not sent any weather packets the latest 10 day(s).
| Time | Temp. | Humidity | Pressure | Rain* | Wind** | Luminosity | Snow |
|---|---|---|---|---|---|---|---|
| 1777394887 | 22.22° C | 51% | 1014.8 hPa | 0 mm | - | 101 W/m² | - |
| 1777394529 | 22.22° C | 48% | 1014.9 hPa | 0 mm | - | 110 W/m² | - |
| 1777394168 | 22.22° C | 49% | 1014.8 hPa | 0 mm | - | 114 W/m² | - |
| 1777393807 | 22.22° C | 51% | 1014.9 hPa | 0 mm | - | 120 W/m² | - |
| 1777393449 | 22.22° C | 51% | 1014.9 hPa | 0 mm | - | 120 W/m² | - |
| 1777393087 | 22.22° C | 51% | 1014.9 hPa | 0 mm | - | 125 W/m² | - |
| 1777392728 | 22.78° C | 50% | 1014.9 hPa | 0 mm | - | 135 W/m² | - |
| 1777392368 | 22.78° C | 50% | 1014.9 hPa | 0 mm | - | 167 W/m² | - |
| 1777391649 | 22.78° C | 49% | 1015 hPa | 0 mm | - | 199 W/m² | - |
| 1777391287 | 22.78° C | 48% | 1014.9 hPa | 0 mm | - | 242 W/m² | - |
| 1777390930 | 22.78° C | 49% | 1014.9 hPa | 0 mm | - | 270 W/m² | - |
| 1777390570 | 22.78° C | 50% | 1014.9 hPa | 0 mm | - | 237 W/m² | - |
| 1777389848 | 22.78° C | 51% | 1014.9 hPa | 0 mm | - | 241 W/m² | - |
| 1777389488 | 22.78° C | 53% | 1014.8 hPa | 0 mm | - | 217 W/m² | - |
| 1777388770 | 22.78° C | 54% | 1014.9 hPa | 0 mm | - | 233 W/m² | - |
| 1777388047 | 23.33° C | 54% | 1014.9 hPa | 0 mm | - | 235 W/m² | - |
| 1777387687 | 23.33° C | 53% | 1014.9 hPa | 0 mm | - | 271 W/m² | - |
| 1777386968 | 23.33° C | 51% | 1015.1 hPa | 0 mm | - | 308 W/m² | - |
| 1777386247 | 23.33° C | 52% | 1014.9 hPa | 0 mm | - | 391 W/m² | - |
| 1777385889 | 23.89° C | 52% | 1014.9 hPa | 0 mm | - | 330 W/m² | - |
| 1777385168 | 23.89° C | 51% | 1015.1 hPa | 0 mm | - | 392 W/m² | - |
| 1777384447 | 24.44° C | 46% | 1015.1 hPa | 0 mm | - | 406 W/m² | - |
| 1777384089 | 23.89° C | 47% | 1015.2 hPa | 0 mm | - | 502 W/m² | - |
| 1777383370 | 23.89° C | 48% | 1015.3 hPa | 0 mm | - | 381 W/m² | - |
| 1777382647 | 24.44° C | 46% | 1015.4 hPa | 0 mm | - | 359 W/m² | - |
* Rain latest hour (hover to see other rain measurements)
** Current wind speed in m/s (hover to see current wind gust speed)